(35853) = 1999 JY63

Discovered at Socorro on 1999-05-10 by LINEAR.

Orbit

Orbit type: Main Belt

Note: WebGL enabled browser required.

epoch2024-03-31.0
epoch JD2460400.5
perihelion date2021-02-27.47099
perihelion JD2459272.97100
argument of perihelion (°)180.68220
ascending node (°)131.10026
inclination (°)5.75708
eccentricity0.2012104
perihelion distance (AU)2.0951162
Tisserand w.r.t. Jupiter3.4
ΔV w.r.t. Earth (km/sec)9.3
semimajor axis (AU)2.6228637
mean anomaly (°)261.61835
mean daily motion (°/day)0.23202800
aphelion distance (AU)3.151
period (years)4.25
P-vector [x]0.66625894
P-vector [y]-0.68370920
P-vector [z]-0.29772597
Q-vector [x]0.74187945
Q-vector [y]0.64817883
Q-vector [z]0.17169476
absolute magnitude14.99
phase slope0.15
uncertainty0
referenceE2024-GJ9
observations used2001
oppositions22
arc length (days)11909
first opposition used1991
last opposition used2024
residual rms (arc-secs)0.64
perturbers coarse indicatorM-v
perturbers precise indicator003Ek
first observation date used1991-09-04.0
last observation date used2024-04-12.0
computer nameMPCLINUX
JD of orbit computation2456966.835832
perihelion JD uncertainty (days)5.5472E-05
argument of perihelion uncertainty (°)4.6269E-05
ascending node uncertainty (°)4.4939E-05
inclination uncertainty (°)3.9092E-06
eccentricity uncertainty 3.4392E-08
perihelion distance uncertainty (AU)9.1359E-08
Minimum Orbit Intersection Distances (in AU)
for orbit epoch: 2460400.5, reference: E2024-GJ9
Mercury1.66621
Venus1.36814
Earth1.08066
Mars0.702
Jupiter2.1216
Saturn5.96793
Uranus15.348
Neptune27.0176

Observations

2019 total observations over interval: 1991 09 04.39965 – 2024 03 20.280154
These data are available for download (format description).

Date (UT) J2000 RA J2000 Dec Magn Location Ref
1991 09 04.39965 23 18 55.80 -10 43 34.9 19.4 V 691 – Steward Observatory, Kitt Peak-Spacewatch MPS 79256
1991 09 04.42034 23 18 54.85 -10 43 45.0 19.1 V 691 – Steward Observatory, Kitt Peak-Spacewatch MPS 79256
1991 09 04.44160 23 18 53.89 -10 43 55.3 19.0 V 691 – Steward Observatory, Kitt Peak-Spacewatch MPS 79256
1998 01 28.32572 10 35 11.68 +11 21 20.9 19.8 V 691 – Steward Observatory, Kitt Peak-Spacewatch MPS 22220
1998 01 28.34699 10 35 10.86 +11 21 27.8 19.8 V 691 – Steward Observatory, Kitt Peak-Spacewatch MPS 22220
1998 01 28.36864 10 35 10.03 +11 21 34.9 19.8 V 691 – Steward Observatory, Kitt Peak-Spacewatch MPS 22220
1999 05 10.35071 16 59 32.56 -13 46 29.0 18.4   704 – Lincoln Laboratory ETS, New Mexico MPS 5095
1999 05 10.36289 16 59 32.25 -13 46 26.0 18.4   704 – Lincoln Laboratory ETS, New Mexico MPS 5095
1999 05 10.37506 16 59 31.80 -13 46 24.4 18.4   704 – Lincoln Laboratory ETS, New Mexico MPS 5095
1999 05 10.38727 16 59 31.32 -13 46 22.1 18.5   704 – Lincoln Laboratory ETS, New Mexico MPS 5095
1999 05 10.39951 16 59 30.87 -13 46 19.7 18.5   704 – Lincoln Laboratory ETS, New Mexico MPS 5095
1999 05 13.38256 16 57 43.03 -13 40 11.3 18.7   704 – Lincoln Laboratory ETS, New Mexico MPS 5095
1999 05 13.39766 16 57 42.42 -13 40 10.8 19.3   704 – Lincoln Laboratory ETS, New Mexico MPS 5095
1999 05 13.41274 16 57 41.81 -13 40 06.4 19.0   704 – Lincoln Laboratory ETS, New Mexico MPS 5095
1999 05 13.42783 16 57 41.20 -13 40 06.1 18.9   704 – Lincoln Laboratory ETS, New Mexico MPS 5095
1999 05 13.44291 16 57 40.59 -13 40 04.7 18.9   704 – Lincoln Laboratory ETS, New Mexico MPS 5095
1999 05 18.35946 16 54 14.85 -13 30 47.1 17.3   704 – Lincoln Laboratory ETS, New Mexico MPS 5095
1999 05 18.37335 16 54 14.12 -13 30 44.4 17.4   704 – Lincoln Laboratory ETS, New Mexico MPS 5095
1999 05 18.38723 16 54 13.51 -13 30 43.3 17.4   704 – Lincoln Laboratory ETS, New Mexico MPS 5095
1999 05 18.40111 16 54 12.88 -13 30 42.3 17.4   704 – Lincoln Laboratory ETS, New Mexico MPS 5095
1999 05 18.41497 16 54 12.21 -13 30 39.1 17.4   704 – Lincoln Laboratory ETS, New Mexico MPS 5095
1999 05 19.36204 16 53 28.94 -13 29 03.0 19.2   704 – Lincoln Laboratory ETS, New Mexico MPS 5095
1999 05 19.37596 16 53 28.32 -13 29 00.3 19.2   704 – Lincoln Laboratory ETS, New Mexico MPS 5095
1999 05 19.38985 16 53 27.71 -13 28 58.4 19.0   704 – Lincoln Laboratory ETS, New Mexico MPS 5095
1999 05 19.40376 16 53 27.09 -13 28 58.3 19.0   704 – Lincoln Laboratory ETS, New Mexico MPS 5095
1999 06 09.31158 16 34 50.06 -13 10 18.2 18.2   704 – Lincoln Laboratory ETS, New Mexico MPS 5095
1999 06 09.32100 16 34 49.52 -13 10 18.5 18.6   704 – Lincoln Laboratory ETS, New Mexico MPS 5095
1999 06 09.33036 16 34 48.94 -13 10 18.0 19.0   704 – Lincoln Laboratory ETS, New Mexico MPS 5095
1999 06 09.33968 16 34 48.43 -13 10 17.5 18.6   704 – Lincoln Laboratory ETS, New Mexico MPS 5095
1999 06 09.34902 16 34 47.94 -13 10 18.4 18.4   704 – Lincoln Laboratory ETS, New Mexico MPS 5095
1999 06 14.23613 16 30 23.68 -13 12 03.9 18.2   704 – Lincoln Laboratory ETS, New Mexico MPS 5095
1999 06 14.24850 16 30 22.98 -13 12 04.3 18.6   704 – Lincoln Laboratory ETS, New Mexico MPS 5095
1999 06 14.26089 16 30 22.30 -13 12 05.2 18.4   704 – Lincoln Laboratory ETS, New Mexico MPS 5095
1999 06 14.27331 16 30 21.57 -13 12 04.4 19.4   704 – Lincoln Laboratory ETS, New Mexico MPS 5095
1999 06 14.28571 16 30 20.94 -13 12 05.8 18.6   704 – Lincoln Laboratory ETS, New Mexico MPS 5095
2000 09 24.39470 04 12 15.88 +13 23 00.2 18.9 R 699 – Lowell Observatory-LONEOS MPS 29929
2000 09 24.41718 04 12 16.08 +13 22 58.2   699 – Lowell Observatory-LONEOS MPS 29929
2000 09 24.43969 04 12 16.23 +13 22 54.1   699 – Lowell Observatory-LONEOS MPS 29929
2000 09 24.46219 04 12 16.38 +13 22 52.0   699 – Lowell Observatory-LONEOS MPS 29929
2000 10 31.36257 03 58 36.30 +11 30 16.8 19.0   704 – Lincoln Laboratory ETS, New Mexico MPS 22220
2000 10 31.37703 03 58 35.65 +11 30 13.8 18.6   704 – Lincoln Laboratory ETS, New Mexico MPS 22220
2000 10 31.39137 03 58 34.86 +11 30 10.9 18.5   704 – Lincoln Laboratory ETS, New Mexico MPS 22220
2000 10 31.40583 03 58 34.12 +11 30 07.4 19.0   704 – Lincoln Laboratory ETS, New Mexico MPS 22220
2000 11 18.33975 03 41 49.66 +10 35 40.2 18.1 R 699 – Lowell Observatory-LONEOS MPS 24906
2000 11 18.35942 03 41 48.44 +10 35 37.2   699 – Lowell Observatory-LONEOS MPS 24906
2000 11 18.37910 03 41 47.26 +10 35 34.4   699 – Lowell Observatory-LONEOS MPS 24906
2000 11 18.39887 03 41 46.09 +10 35 31.7   699 – Lowell Observatory-LONEOS MPS 24906
2000 11 20.23354 03 39 59.09 +10 31 09.0 18.5   704 – Lincoln Laboratory ETS, New Mexico MPS 22220
2000 11 20.24937 03 39 58.12 +10 31 07.4 18.8   704 – Lincoln Laboratory ETS, New Mexico MPS 22220
2000 11 20.26406 03 39 57.28 +10 31 05.5 18.9   704 – Lincoln Laboratory ETS, New Mexico MPS 22220
2000 11 20.27862 03 39 56.47 +10 31 03.6 19.3   704 – Lincoln Laboratory ETS, New Mexico MPS 22220
2000 11 20.29327 03 39 55.47 +10 31 01.2 18.8   704 – Lincoln Laboratory ETS, New Mexico MPS 22220
2000 11 24.24181 03 36 08.22 +10 22 40.3 18.3 R 699 – Lowell Observatory-LONEOS MPS 22220
2000 11 24.26524 03 36 06.79 +10 22 39.2   699 – Lowell Observatory-LONEOS MPS 22220
2000 11 24.28873 03 36 05.50 +10 22 36.2   699 – Lowell Observatory-LONEOS MPS 22220
2000 11 24.31222 03 36 04.05 +10 22 32.8   699 – Lowell Observatory-LONEOS MPS 22220
2000 11 26.27314 03 34 13.77 +10 19 00.9 18.8   704 – Lincoln Laboratory ETS, New Mexico MPS 22220
2000 11 26.29042 03 34 13.01 +10 18 58.9 18.4   704 – Lincoln Laboratory ETS, New Mexico MPS 22220
2000 11 26.30640 03 34 12.04 +10 18 58.5 18.6   704 – Lincoln Laboratory ETS, New Mexico MPS 22220
2000 11 26.32667 03 34 11.02 +10 18 55.1 19.2   704 – Lincoln Laboratory ETS, New Mexico MPS 22220
2000 12 17.17673 03 18 35.12 +10 09 52.6 18.6 R 699 – Lowell Observatory-LONEOS MPS 24906
2000 12 17.19631 03 18 34.50 +10 09 53.7   699 – Lowell Observatory-LONEOS MPS 24906
2000 12 17.21602 03 18 33.84 +10 09 54.0   699 – Lowell Observatory-LONEOS MPS 24906
2000 12 17.26597 03 18 32.17 +10 09 57.1   699 – Lowell Observatory-LONEOS MPS 24906
2002 01 14.30859 09 22 46.70 +15 18 18.8 19.7   644 – Palomar Mountain/NEAT MPS 48633
2002 01 14.38335 09 22 43.36 +15 18 40.5 20.1   644 – Palomar Mountain/NEAT MPS 48633
2002 01 14.38473 09 22 43.25 +15 18 40.1 19.0   704 – Lincoln Laboratory ETS, New Mexico MPS 48633
2002 01 14.39992 09 22 42.54 +15 18 44.2 20.1   704 – Lincoln Laboratory ETS, New Mexico MPS 48633
2002 01 14.41511 09 22 41.91 +15 18 49.0 19.7   704 – Lincoln Laboratory ETS, New Mexico MPS 48633
2002 01 14.43041 09 22 41.21 +15 18 53.7 19.5   704 – Lincoln Laboratory ETS, New Mexico MPS 48633
2002 01 14.44620 09 22 40.51 +15 18 58.9 19.6   704 – Lincoln Laboratory ETS, New Mexico MPS 48633
2002 01 14.45065 09 22 40.38 +15 18 59.7 19.9   644 – Palomar Mountain/NEAT MPS 48633
2002 01 19.39746 09 18 54.45 +15 43 28.3 18.8   704 – Lincoln Laboratory ETS, New Mexico MPS 48633
2002 01 19.41262 09 18 53.70 +15 43 33.1 19.4   704 – Lincoln Laboratory ETS, New Mexico MPS 48633
2002 01 19.42777 09 18 52.97 +15 43 37.4 19.4   704 – Lincoln Laboratory ETS, New Mexico MPS 48633
2002 01 19.44293 09 18 52.23 +15 43 42.3 19.6   704 – Lincoln Laboratory ETS, New Mexico MPS 48633
2002 01 21.29980 09 17 22.30 +15 53 15.8 19.3   704 – Lincoln Laboratory ETS, New Mexico MPS 48633
2002 01 21.31478 09 17 21.50 +15 53 19.0 19.2   704 – Lincoln Laboratory ETS, New Mexico MPS 48633
2002 01 21.32971 09 17 20.70 +15 53 23.9 19.3   704 – Lincoln Laboratory ETS, New Mexico MPS 48633
2002 01 21.34468 09 17 19.96 +15 53 29.0 19.4   704 – Lincoln Laboratory ETS, New Mexico MPS 48633
2002 01 21.35998 09 17 19.26 +15 53 32.6 19.4   704 – Lincoln Laboratory ETS, New Mexico MPS 48633
2002 01 21.38418 09 17 17.98 +15 53 41.7 19.7 V 691 – Steward Observatory, Kitt Peak-Spacewatch MPS 48633
2002 01 21.40715 09 17 16.81 +15 53 48.8 19.5 V 691 – Steward Observatory, Kitt Peak-Spacewatch MPS 48633
2002 01 21.43003 09 17 15.64 +15 53 55.9 19.6 V 691 – Steward Observatory, Kitt Peak-Spacewatch MPS 48633
2002 01 25.30761 09 13 59.37 +16 14 24.5 18.8   704 – Lincoln Laboratory ETS, New Mexico MPS 46455
